カタログに戻る

STARLINK-36159

運用中通信VLEO
NORAD 67079·PAYLOAD·🇺🇸 United States

打ち上げ Dec 14, 2025 から Vandenberg Space Force Base

Loading…

次のパス (今後24時間)

TLE

最新Source: CelesTrak SupGP

元期: Sep 14, 2026, 22:54 UTC

1 67079C 25298E   26257.95465278  .00035750  00000+0  29956-2 0  2572
2 67079  69.9991 257.1116 0003949 264.4049   6.3883 14.98315788    14

AllMySatでSTARLINK-36159をリアルタイム追跡

Download on the App Store